Location: Falniów
(50.3639°N, 19.9642°E)
Time: 02:24:13
(UTC+00:00)

Cosmos 2228 Rocket - Pass Details

Date: 18 January 2026
Orbit: 611 x 647 km, 82.5° (Epoch: 6 February)

Event Time Altitude Azimuth Distance (km) Brightness Sun altitude
Exits shadow 05:05:46 - 346° (NNW) 2,839 6.2 -13.3°
Reaches altitude 10° 05:07:52 10° 343° (NNW) 1,986 5.3 -13.0°
Maximum altitude 05:12:11 59° 265° (W) 715 3.1 -12.3°
Drops below altitude 10° 05:16:27 10° 186° (S) 1,964 5.8 -11.7°
Sets 05:18:41 0° 182° (S) 2,865 6.7 -11.4°
